Flag for U.S.A. Weather past 2 weeks in Springfield, Massachusetts, U.S.A.

Now
68 °F

Overcast.


Feels Like: 68 °F
Forecast: 58 / 79 °F
Wind: 7 mph from Northwest

Location: Barnes Municipal Airport

Current Time: May 5, 2015 at 9:24:45 AM

Latest Report: May 5, 2015 at 8:53 AM


Visibility: 10 mi

Pressure: 30.19 "Hg

Humidity: 59%

Dew point: 53 °F

Location of SpringfieldLocation

Historic Weather in Springfield — Graph

°F

Springfield temperature yesterday

Maximum temperature yesterday: 86 °F (at 2:53 PM)
Minimum temperature yesterday: 44 °F (at 5:53 AM)
Average temperature yesterday: 67 °F

Past Weeks' High & Low Weather Summary

 TemperatureHumidityPressure
High86 °F (May 4, 2:53 PM)93% (Apr 20, 4:59 PM)30.20 "Hg (Apr 20, 4:59 PM)
Low33 °F (Apr 25, 5:53 AM)17% (May 4, 1:53 PM)29.52 "Hg (Apr 22, 3:53 PM)
Average53 °F55%29.81 "Hg
* Reported Apr 20 7:53 AM — May 5 7:53 AM, Springfield, Weather by CustomWeather, © 2015

Note: Actual official high and low records may vary slightly from our data, if they occured in-between our weather recording intervals... More about our weather records

Advertising

Springfield weather history for previous 24 hours

 ConditionsComfort  
Time TempWeatherWind HumidityBarometerVisibility
7:53 AM
Tue, May 5
67 °FOvercast.8 mph59%30.18 "Hg10 mi
6:53 AM65 °FOvercast.8 mph63%30.15 "Hg10 mi
5:53 AM63 °FPassing clouds.No wind60%30.14 "Hg10 mi
4:53 AM62 °FOvercast.No wind58%30.12 "Hg10 mi
3:53 AM65 °FClear.No wind47%30.11 "Hg10 mi
2:53 AM65 °FPassing clouds.9 mph47%30.10 "Hg10 mi
1:53 AM67 °FClear.9 mph44%30.10 "Hg10 mi
12:53 AM67 °FClear.3 mph42%30.10 "Hg10 mi
11:53 PM
Mon, May 4
68 °FPassing clouds.10 mph39%30.08 "Hg10 mi
10:53 PM68 °FClear.9 mph38%30.08 "Hg10 mi
9:53 PM69 °FClear.8 mph36%30.09 "Hg10 mi
8:53 PM73 °FClear.12 mph30%30.08 "Hg10 mi
7:53 PM76 °FSunny.14 mph26%30.07 "Hg10 mi
6:53 PM79 °FScattered clouds.22 mph25%30.06 "Hg10 mi
5:53 PM81 °FScattered clouds.21 mph24%30.05 "Hg10 mi
4:53 PM86 °FPartly sunny.18 mph17%30.05 "Hg10 mi
3:53 PM85 °FPartly sunny.15 mph18%30.06 "Hg10 mi
2:53 PM86 °FScattered clouds.20 mph17%30.08 "Hg10 mi
1:53 PM84 °FPartly sunny.10 mph17%30.10 "Hg10 mi
12:53 PM82 °FScattered clouds.5 mph25%30.11 "Hg10 mi
11:53 AM77 °FScattered clouds.6 mph33%30.15 "Hg10 mi
10:53 AM72 °FSunny.6 mph38%30.18 "Hg10 mi
9:53 AM66 °FSunny.5 mph45%30.19 "Hg10 mi
Weather by CustomWeather, © 2015

See weather overviewHow to use our weather pages